Location: Abucea
(45.9000°N, 22.5333°E)
Time: 21:02:19
(UTC+00:00)

SPOT 1/Viking Rocket - Pass Details

Date: 13 December 2025
Orbit: 772 x 789 km, 98.2° (Epoch: 22 April)

Event Time Altitude Azimuth Distance (km) Brightness Sun altitude
Rises 16:30:33 0° 161° (SSE) 3,271 6.7 -17.5°
Reaches altitude 10° 16:32:51 10° 161° (SSE) 2,346 6.0 -17.9°
Maximum altitude 16:38:03 81° 74° (ENE) 805 3.4 -18.7°
Drops below altitude 10° 16:43:16 10° 348° (NNW) 2,360 6.0 -19.6°
Sets 16:45:36 0° 348° (NNW) 3,291 6.8 -20.0°
